This is the latest recevied weather packets stored in our database for station/object WE1C. If no packets are shown the sender has not sent any weather packets the latest 1 day(s).
| Time | Temp. | Humidity | Pressure | Rain* | Wind** | Luminosity | Snow |
|---|---|---|---|---|---|---|---|
| 1778007575 | 28.89° C | 32% | 1036.1 hPa | 0 mm | 2.24 m/s, 188° | 709 W/m² | - |
| 1778007272 | 27.78° C | 34% | 1035.8 hPa | 0 mm | 0.89 m/s, 219° | 724 W/m² | - |
| 1778006968 | 27.22° C | 34% | 1036.2 hPa | 0 mm | 2.24 m/s, 242° | 736 W/m² | - |
| 1778006666 | 26.67° C | 37% | 1036.3 hPa | 0 mm | 0.89 m/s, 158° | 797 W/m² | - |
| 1778006362 | 27.22° C | 37% | 1036.2 hPa | 0 mm | 1.34 m/s, 212° | 746 W/m² | - |
| 1778006059 | 27.78° C | 36% | 1036.2 hPa | 0 mm | 1.34 m/s, 184° | 769 W/m² | - |
| 1778005755 | 27.22° C | 38% | 1036.5 hPa | 0 mm | 2.24 m/s, 271° | 759 W/m² | - |
| 1778005452 | 27.22° C | 37% | 1036.2 hPa | 0 mm | 0.89 m/s, 217° | 233 W/m² | - |
| 1778005149 | 27.78° C | 38% | 1036.5 hPa | 0 mm | 1.34 m/s, 181° | 206 W/m² | - |
| 1778004846 | 27.78° C | 36% | 1036.5 hPa | 0 mm | 0.45 m/s, 206° | 665 W/m² | - |
| 1778004543 | 26.67° C | 38% | 1036.3 hPa | 0 mm | 0.89 m/s, 147° | 802 W/m² | - |
| 1778004240 | 27.22° C | 37% | 1036.3 hPa | 0 mm | 0.89 m/s, 179° | 782 W/m² | - |
| 1778003936 | 27.78° C | 37% | 1036.4 hPa | 0 mm | 1.79 m/s, 200° | 222 W/m² | - |
| 1778003632 | 27.78° C | 36% | 1036.7 hPa | 0 mm | 0.89 m/s, 143° | 809 W/m² | - |
| 1778003329 | 27.78° C | 37% | 1036.8 hPa | 0 mm | 1.79 m/s, 234° | 826 W/m² | - |
| 1778003027 | 27.78° C | 38% | 1036.9 hPa | 0 mm | 2.24 m/s, 65° | 876 W/m² | - |
| 1778002722 | 27.78° C | 37% | 1036.8 hPa | 0 mm | 1.34 m/s, 154° | 815 W/m² | - |
| 1778002419 | 27.22° C | 37% | 1036.7 hPa | 0 mm | 0.45 m/s, 171° | 780 W/m² | - |
| 1778002116 | 27.22° C | 39% | 1036.9 hPa | 0 mm | 1.79 m/s, 174° | 777 W/m² | - |
| 1778001814 | 27.22° C | 39% | 1037 hPa | 0 mm | 0.89 m/s, 173° | 766 W/m² | - |
| 1778001513 | 27.22° C | 38% | 1036.8 hPa | 0 mm | 1.34 m/s, 169° | 769 W/m² | - |
| 1778001211 | 26.67° C | 38% | 1037.3 hPa | 0 mm | 1.79 m/s, 245° | 772 W/m² | - |
| 1778000907 | 27.22° C | 39% | 1037 hPa | 0 mm | 1.34 m/s, 203° | 813 W/m² | - |
| 1778000604 | 27.22° C | 38% | 1037.2 hPa | 0 mm | 0.45 m/s, 155° | 654 W/m² | - |
| 1778000299 | 27.78° C | 39% | 1037.1 hPa | 0 mm | 0.89 m/s, 203° | 780 W/m² | - |
* Rain latest hour (hover to see other rain measurements)
** Current wind speed in m/s (hover to see current wind gust speed)